• In Italy
  • List of Countries
  • For 7 days
  • Water Temperature
  • Satellite Maps
  • Weather Map
  • Weather Widgets
  • user-avatar
    Login

    Hourly Weather Nagpur

    Today, 22 July, Sunday

    Time Temperature Precipitation Wind Pressure Humidity
    00:00 +28°C° 0.6 mm 5 mps 725 mmHg 86%
    01:00 +27°C° 0.6 mm 5 mps 724 mmHg 87%
    02:00 +27°C° 0.6 mm 5 mps 724 mmHg 87%
    03:00 +27°C° 0.3 mm 5 mps 724 mmHg 87%
    04:00 +27°C° 0.3 mm 5 mps 724 mmHg 87%
    05:00 +26°C° 0.3 mm 5 mps 724 mmHg 87%
    06:00 +27°C° 1.1 mm 5 mps 724 mmHg 87%
    07:00 +27°C° 1.1 mm 5 mps 725 mmHg 86%
    08:00 +27°C° 1.1 mm 5 mps 725 mmHg 85%
    09:00 +27°C° 1.5 mm 5 mps 725 mmHg 86%
    10:00 +27°C° 1.5 mm 5 mps 725 mmHg 86%
    11:00 +27°C° 1.5 mm 5 mps 725 mmHg 87%
    12:00 +27°C° 3.4 mm 4 mps 724 mmHg 88%
    13:00 +27°C° 3.4 mm 4 mps 724 mmHg 89%
    14:00 +27°C° 3.4 mm 4 mps 723 mmHg 90%
    15:00 +27°C° 5.1 mm 3 mps 723 mmHg 91%
    16:00 +27°C° 5.1 mm 3 mps 723 mmHg 91%
    17:00 +27°C° 5.1 mm 3 mps 723 mmHg 92%
    18:00 +27°C° 2.7 mm 4 mps 723 mmHg 91%
    19:00 +27°C° 2.7 mm 4 mps 723 mmHg 91%
    20:00 +27°C° 2.7 mm 5 mps 724 mmHg 91%
    21:00 +27°C° 1.2 mm 5 mps 724 mmHg 90%
    22:00 +27°C° 1.2 mm 5 mps 724 mmHg 90%
    23:00 +27°C° 1.2 mm 5 mps 724 mmHg 90%

    Tomorrow, 23 July, Monday

    Time Temperature Precipitation Wind Pressure Humidity
    00:00 +27°C° 1.3 mm 6 mps 723 mmHg 90%
    01:00 +26°C° 1.3 mm 6 mps 723 mmHg 90%
    02:00 +26°C° 1.3 mm 6 mps 722 mmHg 90%
    03:00 +26°C° 1.8 mm 6 mps 722 mmHg 90%
    04:00 +26°C° 1.8 mm 6 mps 722 mmHg 90%
    05:00 +26°C° 1.8 mm 6 mps 722 mmHg 90%
    06:00 +26°C° 1 mm 6 mps 723 mmHg 90%
    07:00 +26°C° 1 mm 6 mps 723 mmHg 90%
    08:00 +26°C° 1 mm 5 mps 724 mmHg 90%
    09:00 +26°C° 0.9 mm 5 mps 724 mmHg 91%
    10:00 +26°C° 0.9 mm 5 mps 724 mmHg 91%
    11:00 +26°C° 0.9 mm 5 mps 724 mmHg 91%
    12:00 +26°C° 0.6 mm 5 mps 724 mmHg 91%
    13:00 +26°C° 0.6 mm 5 mps 724 mmHg 90%
    14:00 +26°C° 0.6 mm 4 mps 723 mmHg 90%
    15:00 +26°C° 0.2 mm 4 mps 723 mmHg 90%
    16:00 +26°C° 0.2 mm 4 mps 723 mmHg 89%
    17:00 +26°C° 0.2 mm 3 mps 723 mmHg 89%
    18:00 +26°C° 0.2 mm 3 mps 724 mmHg 90%
    19:00 +26°C° 0.2 mm 3 mps 724 mmHg 90%
    20:00 +26°C° 0.2 mm 3 mps 725 mmHg 90%
    21:00 +26°C° 0.1 mm 3 mps 725 mmHg 90%
    22:00 +26°C° 0.1 mm 4 mps 725 mmHg 90%
    23:00 +26°C° 0.1 mm 4 mps 725 mmHg 90%

    Day after tomorrow, 24 July, Tuesday

    Time Temperature Precipitation Wind Pressure Humidity
    00:00 +26°C° 0.1 mm 4 mps 725 mmHg 90%
    01:00 +26°C° 0.1 mm 4 mps 725 mmHg 89%
    02:00 +26°C° 0.1 mm 4 mps 725 mmHg 89%
    03:00 +26°C° 0.1 mm 4 mps 724 mmHg 89%
    04:00 +26°C° 0.1 mm 4 mps 724 mmHg 89%
    05:00 +26°C° 0.1 mm 4 mps 724 mmHg 89%
    06:00 +26°C° 0 mm 4 mps 725 mmHg 86%
    07:00 +27°C° 0 mm 5 mps 725 mmHg 83%
    08:00 +28°C° 0 mm 6 mps 726 mmHg 79%
    09:00 +29°C° 0.3 mm 6 mps 726 mmHg 77%
    10:00 +30°C° 0.3 mm 6 mps 726 mmHg 74%
    11:00 +32°C° 0.3 mm 6 mps 726 mmHg 71%
    12:00 +32°C° 0.9 mm 6 mps 725 mmHg 70%
    13:00 +33°C° 0.9 mm 6 mps 725 mmHg 69%
    14:00 +33°C° 0.9 mm 6 mps 724 mmHg 69%
    15:00 +33°C° 0.7 mm 6 mps 724 mmHg 70%
    16:00 +32°C° 0.7 mm 5 mps 724 mmHg 71%
    17:00 +32°C° 0.7 mm 5 mps 724 mmHg 73%
    18:00 +30°C° 0.6 mm 4 mps 725 mmHg 76%
    19:00 +29°C° 0.6 mm 4 mps 725 mmHg 79%
    20:00 +28°C° 0.6 mm 4 mps 725 mmHg 82%
    21:00 +28°C° 0.1 mm 4 mps 726 mmHg 83%
    22:00 +28°C° 0.1 mm 4 mps 726 mmHg 83%
    23:00 +27°C° 0.1 mm 4 mps 726 mmHg 84%

    25 July, Wednesday

    Time Temperature Precipitation Wind Pressure Humidity
    00:00 +27°C° 0 mm 4 mps 726 mmHg 85%
    01:00 +27°C° 0 mm 4 mps 725 mmHg 85%
    02:00 +27°C° 0 mm 4 mps 725 mmHg 86%
    03:00 +26°C° 0 mm 4 mps 725 mmHg 86%
    04:00 +26°C° 0 mm 4 mps 725 mmHg 87%
    05:00 +26°C° 0 mm 4 mps 725 mmHg 87%
    06:00 +27°C° 0 mm 4 mps 725 mmHg 84%
    07:00 +28°C° 0 mm 5 mps 726 mmHg 80%
    08:00 +29°C° 0 mm 6 mps 726 mmHg 77%
    09:00 +29°C° 0.2 mm 6 mps 726 mmHg 74%
    10:00 +30°C° 0.2 mm 6 mps 726 mmHg 72%
    11:00 +32°C° 0.2 mm 7 mps 726 mmHg 69%
    12:00 +32°C° 0.5 mm 7 mps 725 mmHg 69%
    13:00 +32°C° 0.5 mm 7 mps 725 mmHg 69%
    14:00 +32°C° 0.5 mm 8 mps 724 mmHg 69%
    15:00 +32°C° 0 mm 7 mps 724 mmHg 70%
    16:00 +32°C° 0 mm 6 mps 724 mmHg 70%
    17:00 +32°C° 0 mm 5 mps 724 mmHg 71%
    18:00 +30°C° 0 mm 5 mps 725 mmHg 74%
    19:00 +29°C° 0 mm 5 mps 725 mmHg 76%
    20:00 +28°C° 0 mm 4 mps 726 mmHg 79%
    21:00 +28°C° 0 mm 4 mps 726 mmHg 80%
    22:00 +28°C° 0 mm 4 mps 726 mmHg 81%
    23:00 +28°C° 0 mm 4 mps 726 mmHg 82%

    26 July, Thursday

    Time Temperature Precipitation Wind Pressure Humidity
    00:00 +27°C° 0 mm 4 mps 726 mmHg 82%
    01:00 +27°C° 0 mm 4 mps 725 mmHg 83%
    02:00 +27°C° 0 mm 4 mps 725 mmHg 84%
    03:00 +27°C° 0 mm 4 mps 725 mmHg 84%
    04:00 +27°C° 0 mm 4 mps 725 mmHg 85%
    05:00 +26°C° 0 mm 4 mps 725 mmHg 86%
    06:00 +27°C° 0 mm 4 mps 726 mmHg 82%
    07:00 +28°C° 0 mm 5 mps 726 mmHg 79%
    08:00 +29°C° 0 mm 6 mps 727 mmHg 75%
    09:00 +30°C° 0.2 mm 6 mps 727 mmHg 72%
    10:00 +32°C° 0.2 mm 7 mps 727 mmHg 68%
    11:00 +33°C° 0.2 mm 7 mps 727 mmHg 64%
    12:00 +33°C° 0.6 mm 7 mps 726 mmHg 63%
    13:00 +33°C° 0.6 mm 7 mps 726 mmHg 62%
    14:00 +34°C° 0.6 mm 7 mps 725 mmHg 61%
    15:00 +33°C° 0.8 mm 7 mps 725 mmHg 64%
    16:00 +32°C° 0.8 mm 6 mps 725 mmHg 66%
    17:00 +32°C° 0.8 mm 5 mps 725 mmHg 69%
    18:00 +30°C° 0.9 mm 5 mps 725 mmHg 73%
    19:00 +29°C° 0.9 mm 4 mps 726 mmHg 76%
    20:00 +28°C° 0.9 mm 4 mps 726 mmHg 80%
    21:00 +28°C° 0.6 mm 4 mps 726 mmHg 81%
    22:00 +28°C° 0.6 mm 4 mps 727 mmHg 82%
    23:00 +27°C° 0.6 mm 4 mps 727 mmHg 83%

    27 July, Friday

    Time Temperature Precipitation Wind Pressure Humidity
    00:00 +27°C° 0.2 mm 4 mps 726 mmHg 83%
    01:00 +27°C° 0.2 mm 4 mps 726 mmHg 84%
    02:00 +27°C° 0.2 mm 4 mps 725 mmHg 85%
    03:00 +27°C° 0 mm 3 mps 725 mmHg 85%
    04:00 +27°C° 0 mm 3 mps 726 mmHg 86%
    05:00 +27°C° 0 mm 3 mps 726 mmHg 86%
    06:00 +27°C° 0 mm 4 mps 726 mmHg 83%
    07:00 +28°C° 0 mm 5 mps 726 mmHg 80%
    08:00 +29°C° 0 mm 5 mps 727 mmHg 77%
    09:00 +29°C° 0 mm 5 mps 727 mmHg 74%
    10:00 +30°C° 0 mm 5 mps 727 mmHg 71%
    11:00 +32°C° 0 mm 5 mps 727 mmHg 69%
    12:00 +32°C° 0.1 mm 6 mps 726 mmHg 66%
    13:00 +33°C° 0.1 mm 6 mps 725 mmHg 64%
    14:00 +33°C° 0.1 mm 6 mps 725 mmHg 62%
    15:00 +33°C° 0.2 mm 6 mps 725 mmHg 63%
    16:00 +33°C° 0.2 mm 5 mps 724 mmHg 65%
    17:00 +33°C° 0.2 mm 5 mps 724 mmHg 66%
    18:00 +32°C° 0.1 mm 5 mps 725 mmHg 69%
    19:00 +30°C° 0.1 mm 4 mps 725 mmHg 72%
    20:00 +29°C° 0.1 mm 4 mps 726 mmHg 76%
    21:00 +28°C° 0 mm 4 mps 726 mmHg 76%
    22:00 +28°C° 0 mm 4 mps 726 mmHg 77%
    23:00 +27°C° 0 mm 4 mps 726 mmHg 78%
    Show more